Other Public Products
Issued by NWS Grand Forks, ND

Home | Current Version | Previous Version | Graphics & Text | Print | Product List | Glossary On
Versions: 1 2 3 4 5 6 7 8 9 10 11 12 13 14 15 16 17 18 19 20 21 22 23 24 25 26 27 28 29 30 31 32 33 34 35 36 37 38 39 40 41 42 43 44 45 46 47 48 49 50
000
FPUS83 KFGF 190010
OPUFGF
PRAIRIE TO PINES WEATHER ROUNDUP
NATIONAL WEATHER SERVICE EASTERN NORTH DAKOTA/GRAND FORKS ND
700 PM CDT FRI APR 18 2014

 **SATELLITE DATA USED TO AUGMENT SKY COVER AT AUTOMATED STATIONS**
 *****  WEATHER ACROSS EASTERN NORTH DAKOTA  *****

CITY           SKY/WX    TMP DP  RH WIND       PRES   REMARKS
GRAND FORKS    CLOUDY    48  30  49 SE23G32   30.01F
6HR MIN TEMP:  48; 6HR MAX TEMP:  53;

GRAND FORKS AF CLOUDY    48  30  49 SE24G31   30.00F
GRAND CITY NWS   N/A     48 N/A N/A SE16        N/A
BUXTON         NOT AVBL
DEVILS LAKE    CLOUDY    45  28  53 SE29      29.89S
6HR MIN TEMP:  45; 6HR MAX TEMP:  48;

FARGO          CLOUDY    48  27  44 SE22G35   30.01F
6HR MIN TEMP:  32; 6HR MAX TEMP:  53; 6HR PCP: TRACE;

WAHPETON ARPT  MOCLDY    46  30  53 SE28G38   30.01F
$$

 *****  WEATHER ACROSS CENTRAL AND WESTERN NORTH DAKOTA  *****

CITY           SKY/WX    TMP DP  RH WIND       PRES   REMARKS
JAMESTOWN      CLOUDY    47  36  65 SE36G47   29.83F
6HR MIN TEMP:  47; 6HR MAX TEMP:  54;

BISMARCK       CLOUDY    56  38  50 E23G31    29.67F
6HR MIN TEMP:  54; 6HR MAX TEMP:  66;

MINOT          CLOUDY    50  34  54 E23G33    29.72F
6HR MIN TEMP:  46; 6HR MAX TEMP:  54; 6HR PCP: TRACE;

MINOT AFB      CLOUDY    49  35  58 SE20G28   29.73F
6HR MIN TEMP:  45; 6HR MAX TEMP:  26;

GARRISON         N/A     52  36  54 E23G35    29.68S
6HR MIN TEMP:  49; 6HR MAX TEMP:  58;

WILLISTON      CLOUDY    55  35  47 S8        29.66S
6HR MIN TEMP:  48; 6HR MAX TEMP:  57; 6HR PCP: TRACE;

DICKINSON      PTSUNNY   61  37  41 SE12      29.60F
6HR MIN TEMP:  51; 6HR MAX TEMP:  64;

HETTINGER      CLOUDY    64  40  41 E9        29.61S
6HR MIN TEMP:  53; 6HR MAX TEMP:  66;

$$

 *****  OTHER OBSERVATIONS NORTHEAST NORTH DAKOTA  *****

CITY           SKY/WX    TMP DP  RH WIND       PRES   REMARKS
WALHALLA         N/A     46  32  57 SE17G25   30.00F
LANGDON        CLOUDY    45  28  53 SE28G35   29.94F
CAVALIER       CLOUDY    46  32  57 SE10G21   30.01F
GRAFTON        CLOUDY    46  32  57 SE17G23   30.02F
CANDO          FAIR      46  30  53 SE31G41   29.88F
FORT TOTTEN      N/A     46  28  48 SE16      29.95S
ROLLA          CLOUDY    45  32  61 SE26G36   29.88F
RUGBY          FAIR      46  32  57 SE30G38   29.79F
 ***** THE ABOVE OBSERVATIONS ARE NON NWS ARE NOT QUALITY
        CONTROLLED AND MAY MIS-REPORT RAIN FOR SNOW...
$$

 *****  OTHER OBSERVATIONS SOUTHEAST NORTH DAKOTA *****

CITY           SKY/WX    TMP DP  RH WIND       PRES   REMARKS
COOPERSTOWN    FAIR      45  32  61 SE28G41   29.91F
VALLEY CITY    FAIR      46  32  57 SE24G41   29.91F
OAKES          FAIR      48  37  66 E35G43    29.86F
GWINNER        CLEAR     48  36  61 SE33G41   29.92F
SHEYENNE NWR     N/A     49  33  54 SE24      29.95S
BUFFALO        NOT AVBL
WYNDMERE       NOT AVBL
 ***** THE ABOVE OBSERVATIONS ARE NON NWS ARE NOT QUALITY
       CONTROLLED AND MAY MIS-REPORT RAIN FOR SNOW...
$$

  *****  WEATHER ACROSS NORTHERN MINNESOTA  *****

CITY           SKY/WX    TMP DP  RH WIND       PRES   REMARKS
FLAG ISLAND    MOSUNNY   41  16  36 E12G18    30.17F
WARROAD        PTSUNNY   39  27  60 E9        30.15F
ROSEAU         CLOUDY    48  19  32 SE17      30.12F
HALLOCK        CLOUDY    48  23  37 SE16      30.05F
THF RVR FALLS  CLOUDY    46  25  42 E17       30.08F
6HR MIN TEMP:  46; 6HR MAX TEMP:  52;

HALSTAD          N/A     46  27  46 SE24        N/A
FOSSTON        CLOUDY    45  25  45 SE15G24   30.10F
BAUDETTE       MOSUNNY   45  16  31 E17G24    30.17F
6HR MIN TEMP:  43; 6HR MAX TEMP:  48;

WASKISH        PTSUNNY   46  19  34 E15       30.17F
CROOKSTON      CLOUDY    48  28  46 SE17      30.06F
$$
  *****  WEATHER ACROSS CENTRAL AND WEST MINNESOTA  *****

CITY           SKY/WX    TMP DP  RH WIND       PRES   REMARKS
BEMIDJI        CLOUDY    45  22  41 SE21G26   30.15F
PARK RAPIDS    CLOUDY    44  24  45 SE17      30.16R
6HR MIN TEMP:  43; 6HR MAX TEMP:  49;

WADENA         PTSUNNY   41  27  56 SE16G23   30.16R
DETROIT LAKES  PTSUNNY   43  28  56 SE21G30   30.11F
MOORHEAD       NOT AVBL
FERGUS FALLS   PTSUNNY   45  25  45 SE23G32   30.05F
ELBOW LAKE     FAIR      45  30  56 SE24G36   30.06F
6HR MIN TEMP:  42; 6HR MAX TEMP:  46;

MORRIS MN      SUNNY     48  36  61 E29       30.03F
STAPLES        CLOUDY    41  25  52 SE8G20    30.18S
WHEATON        MOSUNNY   50  37  62 E33G39    30.01F
$$
  *****  WEATHER ELSEWHERE ACROSS MINNESOTA  *****

CITY           SKY/WX    TMP DP  RH WIND       PRES   REMARKS
DULUTH         PTCLDY    36  19  50 E15       30.30F
6HR MIN TEMP:  35; 6HR MAX TEMP:  38;

INTRNTL FALLS  SUNNY     43  12  28 SE12      30.24F
6HR MIN TEMP:  41; 6HR MAX TEMP:  46;

ELY            CLEAR     41  21  45 SE13      30.29F
CLOQUET        PTCLDY    36  18  48 E10G20    30.29S
BRAINERD       CLOUDY    47  23  38 E10G23    30.21F
6HR MIN TEMP:  46; 6HR MAX TEMP:  50;

HIBBING        PTCLDY    42  18  37 SE15G22   30.27S
6HR MIN TEMP:  42; 6HR MAX TEMP:  50;

ALEXANDRIA     MOSUNNY   44  29  55 SE22G30   30.13F
6HR MIN TEMP:  40; 6HR MAX TEMP:  46;

SAINT CLOUD    CLOUDY    45  27  49 E9G20     30.19F
6HR MIN TEMP:  40; 6HR MAX TEMP:  46;

MINNEAPOLIS    CLOUDY    51  26  37 E20       30.23F
6HR MIN TEMP:  46; 6HR MAX TEMP:  52;

$$

  *****  WEATHER ACROSS SOUTH DAKOTA  *****

CITY           SKY/WX    TMP DP  RH WIND       PRES   REMARKS
SIOUX FALLS    CLOUDY    63  36  36 S24G32    29.97F
6HR MIN TEMP:  59; 6HR MAX TEMP:  66;

BROOKINGS      NOT AVBL
WATERTOWN      MOSUNNY   60  36  40 SE21G30   29.93F
6HR MIN TEMP:  49; 6HR MAX TEMP:  62;

HURON          CLOUDY    68  39  34 S17G35    29.80F
6HR MIN TEMP:  62; 6HR MAX TEMP:  72;

SISSETON         N/A     49  37  63 SE30G41   29.96F
ABERDEEN       MOSUNNY   66  39  37 SE32G45   29.79F
6HR MIN TEMP:  56; 6HR MAX TEMP:  68;

MITCHELL       CLOUDY    68  41  37 S26G38    29.86F
PIERRE         CLOUDY    75  37  25 S25G32    29.63F
6HR MIN TEMP:  65; 6HR MAX TEMP:  83;

MOBRIDGE       PTSUNNY   73  37  27 SE25      29.56F
RAPID CITY     CLOUDY    75  40  28 S15G21    29.60F
6HR MIN TEMP:  71; 6HR MAX TEMP:  77;

$$

  *****  SOME WEATHER IN NEARBY STATES *****

CITY           SKY/WX    TMP DP  RH WIND       PRES   REMARKS
GLASGOW MT     MOSUNNY   52  46  80 SE14      29.61F
6HR MIN TEMP:  46; 6HR MAX TEMP:  53; 6HR PCP:  0.04;

GREAT FALLS MT PTSUNNY   48  17  29 SW32G43   29.75R
6HR MIN TEMP:  47; 6HR MAX TEMP:  56;

CHEYENNE WY    CLOUDY    70  22  16 SW18      29.88F
6HR MIN TEMP:  64; 6HR MAX TEMP:  73;

SCOTTSBLUFF NE PTSUNNY   80  33  18 S18G25    29.75F
6HR MIN TEMP:  74; 6HR MAX TEMP:  84;

OMAHA NE       PTSUNNY   68  38  33 S23G30    30.08F
6HR MIN TEMP:  60; 6HR MAX TEMP:  69;

DES MOINES IA  PTCLDY    64  33  31 SE13      30.18F
6HR MIN TEMP:  58; 6HR MAX TEMP:  66;

DAVENPORT IA   CLEAR     60  29  30 SE5       30.28R
6HR MIN TEMP:  55; 6HR MAX TEMP:  63;

CHICAGO IL     CLEAR     42  29  59 NE15      30.33F
6HR MIN TEMP:  42; 6HR MAX TEMP:  51;

EAU CLAIRE WI  MOCLDY    50  23  34 NE12      30.28F
6HR MIN TEMP:  46; 6HR MAX TEMP:  53;

LA CROSSE WI   MOCLDY    55  25  31 E5        30.27F
6HR MIN TEMP:  49; 6HR MAX TEMP:  56;

$$

  *****  SOME NATIONAL WEATHER *****

CITY           SKY/WX    TMP DP  RH WIND       PRES   REMARKS



USA.gov is the U.S. government's official web portal to all federal, state and local government web resources and services.